Flag for U.S.A. Weather past 2 weeks in West Palm Beach, Florida, U.S.A.

Now
67 °F

Partly sunny.


Feels Like: 67 °F
Forecast: 60 / 70 °F
Wind: 14 mph from East

Location: Palm Beach International Airport

Current Time: Jan 29, 2015 at 9:48:25 AM

Latest Report: Jan 29, 2015 at 8:53 AM


Visibility: 10 mi

Pressure: 30.25 "Hg

Humidity: 49%

Dew point: 47 °F

Location of West Palm BeachLocation

Historic Weather in West Palm Beach — Graph

°F

West Palm Beach temperature yesterday

Maximum temperature yesterday: 67 °F (at 12:53 PM)
Minimum temperature yesterday: 50 °F (at 6:53 AM)
Average temperature yesterday: 58 °F

Past Weeks' High & Low Weather Summary

 TemperatureHumidityPressure
High80 °F (Jan 23, 2:53 PM)97% (Jan 19, 6:53 AM)30.24 "Hg (Jan 19, 6:53 AM)
Low47 °F (Jan 25, 6:53 AM)22% (Jan 28, 2:53 PM)29.82 "Hg (Jan 26, 2:53 PM)
Average66 °F69%30.05 "Hg
* Reported Jan 14 7:53 AM — Jan 29 7:53 AM, West Palm Beach, Weather by CustomWeather, © 2014

Note: Actual official high and low records may vary slightly from our data, if they occured in-between our weather recording intervals... More about our weather records

Advertising

West Palm Beach weather history for previous 24 hours

 ConditionsComfort  
Time TempWeatherWind HumidityBarometerVisibility
7:53 AM
Jan 29
64 °FBroken clouds.9 mph50%30.24 "Hg10 mi
6:53 AM64 °FPassing clouds.7 mph56%30.22 "Hg10 mi
5:53 AM64 °FPassing clouds.8 mph54%30.19 "Hg10 mi
4:53 AM51 °FPassing clouds.No wind89%30.17 "Hg10 mi
3:53 AM53 °FPassing clouds.6 mph83%30.19 "Hg10 mi
2:53 AM53 °FPassing clouds.7 mph83%30.18 "Hg10 mi
1:53 AM52 °FPassing clouds.7 mph83%30.19 "Hg10 mi
12:53 AM53 °FPassing clouds.9 mph80%30.18 "Hg10 mi
11:53 PM
Jan 28
53 °FPassing clouds.9 mph80%30.18 "Hg10 mi
10:53 PM53 °FPassing clouds.12 mph80%30.18 "Hg10 mi
9:53 PM54 °FPassing clouds.10 mph74%30.19 "Hg10 mi
8:53 PM55 °FPassing clouds.12 mph72%30.19 "Hg10 mi
7:53 PM55 °FPassing clouds.10 mph67%30.19 "Hg10 mi
6:53 PM58 °FPassing clouds.10 mph47%30.18 "Hg10 mi
5:53 PM61 °FScattered clouds.15 mph35%30.15 "Hg10 mi
4:53 PM64 °FPassing clouds.17 mph30%30.14 "Hg10 mi
3:53 PM66 °FScattered clouds.14 mph27%30.12 "Hg10 mi
2:53 PM67 °FPassing clouds.12 mph22%30.11 "Hg10 mi
1:53 PM67 °FScattered clouds.13 mph23%30.12 "Hg10 mi
12:53 PM67 °FPassing clouds.13 mph24%30.14 "Hg10 mi
11:53 AM66 °FPassing clouds.15 mph29%30.16 "Hg10 mi
10:53 AM63 °FPassing clouds.17 mph35%30.17 "Hg10 mi
9:53 AM60 °FPassing clouds.15 mph42%30.16 "Hg10 mi
Weather by CustomWeather, © 2014

See weather overviewHow to use our weather pages